Volver al catálogo

STARLINK-34331

ActivoComunicacionesVLEO
NORAD 64204·PAYLOAD·🇺🇸 United States

Lanzado May 31, 2025 desde Vandenberg Space Force Base

Loading…

Próximos Pases (próximas 24 horas)

TLE

ActualizadoSource: CelesTrak SupGP

Época: Sep 15, 2026, 03:44 UTC

1 64204C 25117B   26258.15604167 -.00050860  00000+0 -15027-2 0  2580
2 64204  53.1579 236.4528 0001434  88.1439  54.3911 15.34414279    17

Sigue STARLINK-34331 en tiempo real con AllMySat

Download on the App Store